Home > Weather > Jalandhar > Past weeks

Flag for India Past Weather in Jalandhar, Punjab, India — Yesterday and Last 2 Weeks

Now
88 °F

Duststorm.


Feels Like: 88 °F
Forecast: 79 / 108 °F
Wind: 2 mph from North

Location: Amritsar Airport

Current Time: May 27, 2016 at 11:47:02 PM

Latest Report: May 27, 2016 at 11:00 PM


Visibility: 3 mi

Pressure: 29.53 "Hg

Humidity: 40%

Dew Point: 61 °F

Location of JalandharLocation

Past Weather in Jalandhar — Graph

°F

Jalandhar Temperature Yesterday

Maximum temperature yesterday: 104 °F (at 2:30 PM)
Minimum temperature yesterday: 75 °F (at 5:30 AM)
Average temperature yesterday: 90 °F

High & Low Weather Summary for the Past Weeks

 TemperatureHumidityPressure
High111 °F (May 18, 3:30 PM)100% (May 24, 4:00 AM)29.77 "Hg (May 24, 4:00 AM)
Low68 °F (May 24, 4:00 AM)9% (May 15, 12:00 PM)29.36 "Hg (May 21, 5:00 PM)
Average91 °F35%29.54 "Hg
* Reported May 12 10:30 PM — May 27 10:30 PM, Jalandhar, Weather by CustomWeather, © 2016

Note: Actual official high and low records may vary slightly from our data, if they occured in-between our weather recording intervals... More about our weather records

Advertising

Jalandhar Weather History for the Previous 24 Hours

Scroll right to see more
 ConditionsComfort  
Time TempWeatherWind HumidityBarometerVisibility
10:30 PM
Fri, May 27
90 °FPassing clouds.No wind38%29.53 "Hg3 mi
10:00 PM88 °FPassing clouds.No wind40%29.53 "Hg3 mi
9:30 PM90 °FPassing clouds.No wind38%29.53 "Hg3 mi
9:00 PM90 °FPassing clouds.7 mph38%29.53 "Hg3 mi
8:30 PM91 °FPassing clouds.5 mph34%29.53 "Hg3 mi
7:30 PM95 °FPassing clouds.7 mph30%29.53 "Hg4 mi
7:00 PM99 °FClear.6 mph27%29.50 "Hg4 mi
6:30 PM100 °FClear.8 mph22%29.50 "Hg4 mi
6:00 PM102 °FClear.10 mph20%29.50 "Hg4 mi
5:30 PM104 °FClear.10 mph19%29.50 "Hg4 mi
5:00 PM104 °FClear.12 mph17%29.53 "Hg4 mi
4:30 PM104 °FClear.10 mph19%29.53 "Hg4 mi
4:00 PM104 °FClear.10 mph17%29.53 "Hg4 mi
3:30 PM106 °FClear.7 mph18%29.53 "Hg4 mi
3:00 PM104 °FClear.10 mph17%29.53 "Hg4 mi
2:30 PM104 °FClear.9 mph17%29.56 "Hg4 mi
2:00 PM106 °FClear.12 mph17%29.56 "Hg4 mi
1:30 PM102 °FClear.7 mph18%29.56 "Hg4 mi
1:00 PM102 °FClear.8 mph18%29.56 "Hg4 mi
12:30 PM100 °FScattered clouds.7 mph21%29.59 "Hg4 mi
12:00 PM100 °FScattered clouds.8 mph21%29.59 "Hg4 mi
11:30 AM99 °FScattered clouds.7 mph24%29.59 "Hg4 mi
11:00 AM97 °FScattered clouds.7 mph23%29.62 "Hg4 mi
10:30 AM97 °FScattered clouds.3 mph25%29.62 "Hg4 mi
10:00 AM93 °FScattered clouds.2 mph32%29.62 "Hg4 mi
9:30 AM91 °FScattered clouds.2 mph34%29.59 "Hg3 mi
9:00 AM91 °FScattered clouds.2 mph34%29.59 "Hg3 mi
7:00 AM79 °FScattered clouds.No wind54%29.59 "Hg2 mi
5:30 AM79 °FPassing clouds.2 mph51%29.56 "Hg2 mi
5:00 AM79 °FPassing clouds.No wind51%29.53 "Hg2 mi
2:30 AM77 °FPassing clouds.2 mph54%29.56 "Hg2 mi
1:30 AM79 °FPassing clouds.7 mph48%29.56 "Hg2 mi
12:30 AM79 °FPassing clouds.No wind51%29.56 "Hg2 mi
11:30 PM
Thu, May 26
82 °FPassing clouds.No wind37%29.56 "Hg2 mi
11:00 PM86 °FPassing clouds.3 mph33%29.56 "Hg2 mi
Weather by CustomWeather, © 2016

See weather overviewHow to use our weather pages